Time,TemperatureF,DewpointF,PressureIn,WindDirection,WindDirectionDegrees,WindSpeedMPH,WindSpeedGustMPH,Humidity,HourlyPrecipIn,Conditions,Clouds,dailyrainin,SoftwareType,DateUTC
2013-06-06 00:00:00,63.0,51.0,30.07,NNW,330,26.0,-999.0,64,-99.99,,,-99.99,,2013-06-06 04:00:00,
2013-06-06 00:22:00,63.0,51.0,30.07,NNW,330,26.0,-999.0,64,-99.99,,,-99.99,,2013-06-06 04:22:00,
2013-06-06 00:33:00,63.0,51.0,30.07,NNW,330,26.0,-999.0,64,-99.99,,,-99.99,,2013-06-06 04:33:00,
2013-06-06 00:42:00,63.0,51.0,30.07,NNW,330,26.0,-999.0,64,-99.99,,,-99.99,,2013-06-06 04:42:00,
2013-06-06 00:52:00,63.0,51.0,30.07,NNW,330,26.0,-999.0,64,-99.99,,,-99.99,,2013-06-06 04:52:00,
2013-06-06 01:00:00,61.0,35.0,30.09,WNW,300,20.0,-999.0,37,-99.99,,,-99.99,,2013-06-06 05:00:00,
2013-06-06 01:31:00,61.0,35.0,30.09,WNW,300,20.0,-999.0,37,-99.99,,,-99.99,,2013-06-06 05:31:00,
2013-06-06 01:41:00,61.0,35.0,30.09,WNW,300,20.0,-999.0,37,-99.99,,,-99.99,,2013-06-06 05:41:00,
2013-06-06 01:51:00,61.0,35.0,30.09,WNW,300,20.0,-999.0,37,-99.99,,,-99.99,,2013-06-06 05:51:00,
2013-06-06 02:00:00,56.0,43.0,30.10,NW,320,30.0,-999.0,61,-99.99,,,-99.99,,2013-06-06 06:00:00,
2013-06-06 02:21:00,56.0,43.0,30.10,NW,320,30.0,-999.0,61,-99.99,,,-99.99,,2013-06-06 06:21:00,
2013-06-06 02:32:00,56.0,43.0,30.10,NW,320,30.0,-999.0,61,-99.99,,,-99.99,,2013-06-06 06:32:00,
2013-06-06 02:41:00,56.0,43.0,30.10,NW,320,30.0,-999.0,61,-99.99,,,-99.99,,2013-06-06 06:41:00,
2013-06-06 02:52:00,56.0,43.0,30.10,NW,320,30.0,-999.0,61,-99.99,,,-99.99,,2013-06-06 06:52:00,
2013-06-06 12:00:00,53.0,48.0,30.07,South,190,7.0,-999.0,82,-99.99,,,-99.99,,2013-06-06 16:00:00,
2013-06-06 12:22:00,53.0,48.0,30.07,South,190,7.0,-999.0,82,-99.99,,,-99.99,,2013-06-06 16:22:00,
2013-06-06 12:33:00,53.0,48.0,30.07,South,190,7.0,-999.0,82,-99.99,,,-99.99,,2013-06-06 16:33:00,
2013-06-06 12:42:00,53.0,48.0,30.07,South,190,7.0,-999.0,82,-99.99,,,-99.99,,2013-06-06 16:42:00,
2013-06-06 12:52:00,53.0,48.0,30.07,South,190,7.0,-999.0,82,-99.99,,,-99.99,,2013-06-06 16:52:00,
2013-06-06 13:00:00,52.0,50.0,30.07,SE,140,13.0,-999.0,91,-99.99,,,-99.99,,2013-06-06 17:00:00,
2013-06-06 13:22:00,52.0,50.0,30.07,SE,140,13.0,-999.0,91,-99.99,,,-99.99,,2013-06-06 17:22:00,
2013-06-06 13:32:00,52.0,50.0,30.07,SE,140,13.0,-999.0,91,-99.99,,,-99.99,,2013-06-06 17:32:00,
2013-06-06 13:41:00,52.0,50.0,30.07,SE,140,13.0,-999.0,91,-99.99,,,-99.99,,2013-06-06 17:41:00,
2013-06-06 13:52:00,52.0,50.0,30.07,SE,140,13.0,-999.0,91,-99.99,,,-99.99,,2013-06-06 17:52:00,
2013-06-06 14:00:00,52.0,48.0,30.05,ESE,120,18.0,-999.0,86,-99.99,,,-99.99,,2013-06-06 18:00:00,
2013-06-06 14:22:00,52.0,48.0,30.05,ESE,120,18.0,-999.0,86,-99.99,,,-99.99,,2013-06-06 18:22:00,
2013-06-06 14:33:00,52.0,48.0,30.05,ESE,120,18.0,-999.0,86,-99.99,,,-99.99,,2013-06-06 18:33:00,
2013-06-06 14:42:00,52.0,48.0,30.05,ESE,120,18.0,-999.0,86,-99.99,,,-99.99,,2013-06-06 18:42:00,
2013-06-06 14:52:00,52.0,48.0,30.05,ESE,120,18.0,-999.0,86,-99.99,,,-99.99,,2013-06-06 18:52:00,